Weslaco, TX

1:40 PM CDT on September 20, 2017 (GMT -0500)
Weslaco

Weather History for KT65 - November, 2013

Change the Weather History Date:

Friday, November 8, 2013

  Actual Average (KMFE) Record (KMFE)
Temperature  
Mean Temperature 64 °F -  
Max Temperature 75 °F 77 °F 95 °F (2011)
Min Temperature 54 °F 59 °F 45 °F (1961)
Growing Degree Days 14 (Base 50)    
Moisture  
Dew Point 51 °F    
Average Humidity 67    
Maximum Humidity 91    
Minimum Humidity 48    
Precipitation  
Precipitation 0.00 in - - ()
Sea Level Pressure  
Sea Level Pressure 30.24 in    
Wind  
Wind Speed 7 mph (North)    
Max Wind Speed 12 mph    
Max Gust Speed -    
Visibility 9 miles    
Events      
Averages and records for this station are not official NWS values.
T = Trace of Precipitation, MM = Missing Value Source: NWS Daily Summary

Daily Weather History Graph

Daily Weather History Graph

Search for Another Location

Airport or City:

Trip Planner

Search our weather history database for the weather conditions in past years. The results will help you decide how hot, cold, wet, or windy it might be!

Date:

Astronomy

Nov. 08, 2013 Rise Set
Actual Time 6:45 AM CST 5:45 PM CST
Civil Twilight 6:21 AM CST 6:09 PM CST
Nautical Twilight 5:53 AM CST 6:37 PM CST
Astronomical Twilight 5:26 AM CST 7:04 PM CST
Moon 11:42 AM CST (11/8) 11:05 PM CST (11/8)
Length of Visible Light 11h 47m
Length of Day
10h 59m
Waxing Crescent, 33% of the Moon is Illuminated
Nov 8
Waxing Crescent
Nov 9
First Quarter
Nov 17
Full
Nov 25
Last Quarter
Dec 2
New

Hourly Weather History & Observations

Time (CST) Temp. Dew Point Humidity Pressure Visibility Wind Dir Wind Speed Gust Speed Precip Events Conditions
12:15 AM 54.9 °F 43.2 °F 65% 30.35 in 10.0 mi WNW 9.2 mph - N/A   Clear
12:35 AM 55.0 °F 43.5 °F 65% 30.34 in 10.0 mi NW 8.1 mph - N/A   Clear
12:55 AM 55.6 °F 42.6 °F 62% 30.34 in 10.0 mi NW 9.2 mph - N/A   Clear
1:15 AM 55.8 °F 42.4 °F 61% 30.33 in 10.0 mi NW 8.1 mph - N/A   Clear
1:35 AM 55.9 °F 42.3 °F 60% 30.32 in 10.0 mi NNW 9.2 mph - N/A   Clear
1:55 AM 55.9 °F 42.3 °F 60% 30.32 in 10.0 mi NW 8.1 mph - N/A   Clear
2:15 AM 55.9 °F 42.6 °F 61% 30.31 in 10.0 mi NW 8.1 mph - N/A   Clear
2:35 AM 55.6 °F 42.8 °F 62% 30.30 in 10.0 mi NW 8.1 mph - N/A   Clear
2:55 AM 55.6 °F 43.0 °F 63% 30.30 in 10.0 mi NW 8.1 mph - N/A   Clear
3:15 AM 55.4 °F 43.5 °F 64% 30.30 in 10.0 mi NW 6.9 mph - N/A   Clear
3:35 AM 54.9 °F 43.7 °F 66% 30.30 in 10.0 mi NW 6.9 mph - N/A   Clear
3:55 AM 54.5 °F 44.1 °F 68% 30.30 in 10.0 mi WNW 6.9 mph - N/A   Clear
4:15 AM 54.1 °F 44.4 °F 70% 30.29 in 10.0 mi NW 6.9 mph - N/A   Clear
4:35 AM 54.5 °F 44.1 °F 68% 30.29 in 10.0 mi NW 6.9 mph - N/A   Clear
4:55 AM 54.5 °F 44.1 °F 68% 30.29 in 7.0 mi NW 6.9 mph - N/A   Clear
5:15 AM 54.5 °F 43.7 °F 67% 30.29 in 10.0 mi NW 8.1 mph - N/A   Clear
5:35 AM 54.5 °F 43.7 °F 67% 30.29 in 10.0 mi NW 6.9 mph - N/A   Clear
5:55 AM 54.5 °F 43.5 °F 66% 30.29 in 10.0 mi NW 6.9 mph - N/A   Clear
6:15 AM 54.5 °F 43.7 °F 67% 30.29 in 10.0 mi NW 8.1 mph - N/A   Clear
6:35 AM 54.5 °F 43.9 °F 67% 30.29 in 10.0 mi NW 6.9 mph - N/A   Clear
6:55 AM 54.5 °F 44.2 °F 68% 30.30 in 10.0 mi NW 5.8 mph - N/A   Clear
7:15 AM 54.5 °F 44.2 °F 68% 30.29 in 10.0 mi NW 5.8 mph - N/A   Clear
7:35 AM 54.9 °F 44.4 °F 68% 30.30 in 7.0 mi NW 6.9 mph - N/A   Clear
7:55 AM 55.6 °F 44.8 °F 67% 30.30 in 7.0 mi NNW 6.9 mph - N/A   Clear
8:15 AM 57.2 °F 45.3 °F 65% 30.30 in 7.0 mi NNW 8.1 mph - N/A   Clear
8:35 AM 60.1 °F 46.0 °F 60% 30.30 in 7.0 mi North 8.1 mph - N/A   Clear
8:55 AM 61.2 °F 47.3 °F 60% 30.30 in 10.0 mi North 9.2 mph - N/A   Clear
9:15 AM 62.8 °F 48.9 °F 61% 30.30 in 5.0 mi North 11.5 mph - N/A   Haze
9:35 AM 64.4 °F 49.6 °F 59% 30.30 in 7.0 mi North 9.2 mph - N/A   Scattered Clouds
9:55 AM 65.5 °F 51.1 °F 60% 30.30 in 10.0 mi NNW 10.4 mph - N/A   Scattered Clouds
10:15 AM 66.6 °F 52.3 °F 60% 30.30 in 7.0 mi North 8.1 mph - N/A   Scattered Clouds
10:35 AM 66.2 °F 52.0 °F 60% 30.30 in 10.0 mi North 9.2 mph - N/A   Scattered Clouds
10:55 AM 68.0 °F 52.9 °F 58% 30.29 in 7.0 mi North 6.9 mph - N/A   Mostly Cloudy
11:15 AM 68.9 °F 53.2 °F 57% 30.28 in 10.0 mi North 6.9 mph - N/A   Mostly Cloudy
11:35 AM 67.3 °F 52.9 °F 60% 30.27 in 7.0 mi North 8.1 mph - N/A   Mostly Cloudy
11:55 AM 68.4 °F 53.6 °F 59% 30.26 in 7.0 mi North 9.2 mph - N/A   Overcast
12:15 PM 68.9 °F 54.1 °F 59% 30.25 in 7.0 mi NNW 5.8 mph - N/A   Overcast
12:35 PM 71.2 °F 54.9 °F 56% 30.24 in 7.0 mi North 8.1 mph - N/A   Overcast
12:55 PM 72.0 °F 54.7 °F 54% 30.23 in 10.0 mi NW 6.9 mph - N/A   Mostly Cloudy
1:15 PM 72.0 °F 54.7 °F 54% 30.22 in 7.0 mi North 8.1 mph - N/A   Mostly Cloudy
1:35 PM 73.4 °F 55.6 °F 54% 30.21 in 10.0 mi North 6.9 mph - N/A   Mostly Cloudy
1:55 PM 72.9 °F 55.6 °F 55% 30.19 in 7.0 mi NNE 4.6 mph - N/A   Mostly Cloudy
2:15 PM 73.2 °F 55.4 °F 54% 30.19 in 10.0 mi North 4.6 mph - N/A   Scattered Clouds
2:35 PM 74.5 °F 55.6 °F 52% 30.18 in 7.0 mi North 5.8 mph - N/A   Scattered Clouds
2:55 PM 73.2 °F 54.0 °F 51% 30.17 in 7.0 mi NE 5.8 mph - N/A   Scattered Clouds
3:15 PM 75.4 °F 54.5 °F 48% 30.17 in 10.0 mi NNE 4.6 mph - N/A   Scattered Clouds
3:35 PM 73.9 °F 54.5 °F 51% 30.16 in 7.0 mi ENE 8.1 mph - N/A   Mostly Cloudy
3:55 PM 74.7 °F 55.0 °F 50% 30.16 in 10.0 mi North 6.9 mph - N/A   Mostly Cloudy
4:15 PM 74.3 °F 56.1 °F 53% 30.16 in 7.0 mi NE 10.4 mph - N/A   Overcast
4:35 PM 71.6 °F 56.1 °F 58% 30.16 in 10.0 mi NE 6.9 mph - N/A   Scattered Clouds
4:55 PM 71.2 °F 56.3 °F 59% 30.15 in 10.0 mi NE 6.9 mph - N/A   Scattered Clouds
5:15 PM 70.3 °F 56.1 °F 61% 30.16 in 7.0 mi NE 6.9 mph - N/A   Clear
5:35 PM 69.8 °F 56.5 °F 63% 30.16 in 10.0 mi ENE 6.9 mph - N/A   Scattered Clouds
5:55 PM 68.4 °F 57.2 °F 67% 30.16 in 7.0 mi NE 4.6 mph - N/A   Scattered Clouds
6:15 PM 66.9 °F 57.6 °F 72% 30.16 in 10.0 mi NE 3.5 mph - N/A   Clear
6:35 PM 65.3 °F 58.1 °F 77% 30.17 in 10.0 mi NE 4.6 mph - N/A   Clear
6:55 PM 65.5 °F 58.3 °F 77% 30.17 in 10.0 mi NE 4.6 mph - N/A   Clear
7:15 PM 64.4 °F 58.5 °F 81% 30.18 in 10.0 mi NNE 3.5 mph - N/A   Clear
7:35 PM 63.5 °F 58.3 °F 83% 30.18 in 7.0 mi NNE 3.5 mph - N/A   Clear
7:55 PM 62.8 °F 58.3 °F 85% 30.18 in 10.0 mi NE 4.6 mph - N/A   Clear
8:15 PM 63.0 °F 58.5 °F 85% 30.18 in 7.0 mi North 3.5 mph - N/A   Clear
8:35 PM 62.8 °F 58.3 °F 85% 30.18 in 7.0 mi Calm Calm - N/A   Clear
8:55 PM 62.1 °F 57.9 °F 86% 30.18 in 7.0 mi Calm Calm - N/A   Clear
9:15 PM 62.2 °F 58.1 °F 86% 30.18 in 7.0 mi Calm Calm - N/A   Clear
9:35 PM 61.7 °F 57.7 °F 87% 30.18 in 7.0 mi Calm Calm - N/A   Clear
9:55 PM 61.5 °F 57.7 °F 87% 30.17 in 7.0 mi Calm Calm - N/A   Clear
10:15 PM 61.2 °F 57.7 °F 88% 30.16 in 7.0 mi Calm Calm - N/A   Clear
10:35 PM 60.1 °F 57.0 °F 90% 30.16 in 7.0 mi Calm Calm - N/A   Clear
10:55 PM 60.4 °F 57.4 °F 90% 30.16 in 7.0 mi Calm Calm - N/A   Clear
11:15 PM 59.9 °F 57.2 °F 91% 30.15 in 7.0 mi Calm Calm - N/A   Clear
11:35 PM 59.9 °F 56.8 °F 90% 30.14 in 7.0 mi Calm Calm - N/A   Clear
11:55 PM 59.4 °F 56.7 °F 91% 30.14 in 7.0 mi Calm Calm - N/A   Clear